User: anonymous   Login
Location: ???? ?????????
(31.1304°N, 31.7111°E)
Time: 13:53:15
(UTC+00:00)
Language:

STRAND 1 - Orbit

View from above orbital plane
View from above orbital plane
View from above satellite
View from above satellite

Ground track
Ground track

The orbit data is extracted from the following two-line orbital elements,

1 39090U 13009E   21110.12221399  .00000044  00000-0  30324-4 0  9992
2 39090  98.4331 313.6871 0010383  91.9731 268.2644 14.35175858426691
Epoch (UTC): 20 April 2021 02:55:59
Eccentricity: 0.0010383
inclination: 98.4331°
perigee height: 767 km
apogee height: 782 km
right ascension of ascending node: 313.6871°
argument of perigee: 91.9731°
revolutions per day: 14.35175858
mean anomaly at epoch: 268.2644°
orbit number at epoch: 42669

The dashed part of the orbit path shows where the satellite is in the earth's shadow,  

DLR